EYVIUMKK

Guest
Details From EYVI - VILNIUS INTL
To UMKK - KHRABROVO
Flight Number -
Tags generated
Created
Modified
Stats Distance 164 nm / 303 km
Max Altitude 18,300 ft / 5,578 m
Waypoints 3
Social Downloads 0
Likes 0
Share VATSIM

Download

Looking for another format? Having issues loading an existing format? Contact us
Advertisement - Login to hide

Notes

Basic altitude profile: - Ascent Rate: 2500ft/min - Ascent Speed: 250kts - Cruise Altitude: 35000ft - Cruise Speed: 420kts - Descent Rate: 1500ft/min - Descent Speed: 250kts Options: - Use NATs: yes - Use PACOTS: yes - Use low airways: yes - Use high airways: yes

Route

EYVI VAKAL UMKK

ID Type Via Altitude Latitude Longitude Leg Dist Tot Dist Heading (true) Name
O EYVI APT - 0 ft / 0 m 54.63417˚ 25.28580˚ - 0 nm - VILNIUS INTL
VAKAL FIX - 18,300 ft / 5,578 m 54.86972˚ 23.20806˚ 73 nm 73 nm 282° / 280° -
O UMKK APT - 0 ft / 0 m 54.89005˚ 20.59264˚ 90 nm 163 nm 272° / 270° KHRABROVO

Altitude Profile

Weather

Temperature
Clouds and Precipitation
Forecast for 2017-02-20 06:00 UTC. Updated an hour ago
Winds

EYVI

Details ICAO EYVI (VNO)
Name VILNIUS INTL
Region Lithuania
Timezone Europe/Vilnius (UTC+2.0)
Stats Elevation 646 ft / 197 m (AMSL)
Location 54.634166° 25.285796°
Runways 1
Magnetic Variation 7.362° E

METAR

EYVI 200550Z 22015KT 4100 BR OVC005 01/00 Q1008 R19/2///95 TEMPO 3000 BR

Decode

TAF

TAF TAF EYVI 192300Z 2000/2024 22012G22KT 3000 BR OVC005 TEMPO 2000/2012 1500 DZ OVC002 BECMG 2012/2013 23022G34KT RA OVC010 TEMPO 2013/2024 1500 RASN OVC005

Decode

Departure Runways

ID Width Length Bearing (true) Bearing (mag) Surface Threshold Offset Overrun Length
02 164 ft / 50 m 8,210 ft / 2,502 m 21.89° 14.53° Asphalt 0 ft / 0 m 151 ft / 46 m
20 164 ft / 50 m 8,210 ft / 2,502 m 201.91° 194.55° Asphalt 0 ft / 0 m 0 ft / 0 m

UMKK

Details ICAO UMKK (KGD)
Name KHRABROVO
Region Belarus and Russia (Kaliningrad Oblast)
Timezone Europe/Kaliningrad (UTC+2.0)
Stats Elevation 42 ft / 13 m (AMSL)
Location 54.890049° 20.592635°
Runways 1
Magnetic Variation 6.054° E

METAR

UMKK 200600Z 23008MPS 7000 BKN009 OVC025 04/04 Q1008 R24/29//60 NOSIG RMK QFE755/1006

Decode

TAF

TAF UMKK 200500Z 2006/2106 23009G15MPS 3000 -RA BR SCT007 OVC010 TEMPO 2006/2106 26012G18MPS 1000 SHRA BKN003 BKN013CB

Decode

Destination Runways

ID Width Length Bearing (true) Bearing (mag) Surface Threshold Offset Overrun Length
06 148 ft / 45 m 8,180 ft / 2,493 m 65.93° 59.88° Concrete 0 ft / 0 m 0 ft / 0 m
24 148 ft / 45 m 8,180 ft / 2,493 m 245.96° 239.91° Concrete 0 ft / 0 m 0 ft / 0 m

Approach Navaids

Runway Type Ident Frequency Range Bearing (true) Bearing (mag) Slope Elevation
24 Localiser IKR 109.50 MHz 18 nm / 33 km 245.00° 238.94° - 42 ft / 13 m (AMSL)
24 Glidescope IKR 109.50 MHz 10 nm / 19 km 245.95° 239.89° 2.70° 42 ft / 13 m (AMSL)